Location: Tamazert
(32.6352°N, 5.2072°W)
Time: 16:57:42
(UTC+00:00)

Meteor 1-29 - Pass Details

Date: 22 May 2022
Orbit: 423 x 441 km, 97.7° (Epoch: 28 June)

Event Time Altitude Azimuth Distance (km) Brightness Sun altitude
Rises 04:12:16 0° 7° (N) 2,385 7.2 -12.9°
Reaches altitude 10° 04:14:17 10° 3° (N) 1,516 6.1 -12.5°
Maximum altitude 04:17:28 56° 284° (WNW) 509 2.9 -11.9°
Enters shadow 04:19:57 15° 208° (SSW) 1,229 4.6 -11.5°
